{"data":{"norad_id":59381,"epoch":"2026-09-21T21:43:07.392288Z","epoch_age_seconds":40855,"freshness":"FRESH","line1":"1 59381U 24062H   26264.90494667  .00002581  00000+0  87518-4 0  9993","line2":"2 59381  53.1595  62.7983 0001137  85.3312 274.7821 15.34391819139698","mean_motion":15.34391819,"eccentricity":0.0001137,"inclination_deg":53.1595,"raan_deg":62.7983,"arg_perigee_deg":85.3312,"mean_anomaly_deg":274.7821,"bstar":8.7518e-5,"rev_number":13969,"period_min":93.848258454511,"perigee_km":461.9497496712,"apogee_km":463.50536227122,"semimajor_km":6840.8645559712,"source":"CELESTRAK","updated_at":"2026-09-22T09:00:48.909287Z"}}